Regional Weather Roundup
Issued by NWS Little Rock, AR

Home | Current Version | Previous Version | Graphics & Text | Print | Product List | Glossary On
Versions: 1 2 3 4 5 6 7 8 9 10 11 12 13 14 15 16 17 18 19 20 21 22 23 24 25 26 27 28 29 30 31 32 33 34 35 36 37 38 39 40 41 42 43 44 45 46 47 48 49 50
000
ASUS44 KLZK 240805
RWRLZK

WEATHER ROUNDUP FOR ARKANSAS
NATIONAL WEATHER SERVICE LITTLE ROCK AR
300 AM CDT SUN JUL 24 2016

NOTE: "FAIR" INDICATES FEW OR NO CLOUDS BELOW 12,000 FEET WITH NO
SIGNIFICANT WEATHER AND/OR OBSTRUCTIONS TO VISIBILITY.

ARZ001-003-010-029-240900-
NORTHWEST ARKANSAS

CITY           SKY/WX    TMP DP  RH WIND       PRES   REMARKS
FAYETTEVILLE   CLEAR     75  73  93 CALM      29.97S
FORT SMITH     CLEAR     79  72  79 E5        29.92S
HARRISON       PTCLDY    75  70  84 CALM      29.97F
BENTONVILLE    CLEAR     77  70  78 S5        29.98S
ROGERS         CLEAR     78  73  84 S5        29.98S
SILOAM SPGS    CLEAR     77  64  65 W3        29.97F
HIGHFILL       CLEAR     77  73  87 S5        29.97R
$$

ARZ004-005-016-240900-
NORTH CENTRAL ARKANSAS

CITY           SKY/WX    TMP DP  RH WIND       PRES   REMARKS
BATESVILLE     CLOUDY    73  72  94 E3        29.94R
FLIPPIN        PTCLDY    75  70  83 CALM      29.92S
MTN HOME       CLEAR     74  71  91 CALM      29.94F
$$

ARZ040-041-240900-
WEST CENTRAL ARKANSAS

CITY           SKY/WX    TMP DP  RH WIND       PRES   REMARKS
MENA           PTCLDY    75  73  94 CALM      29.97F
MOUNT IDA      CLOUDY    75  74  96 CALM      29.93S FOG
$$

ARZ009-017-025-026-028-240900-
NORTHEAST ARKANSAS

CITY           SKY/WX    TMP DP  RH WIND       PRES   REMARKS
CORNING          N/A     77  77 100 CALM      29.94R
JONESBORO      PTCLDY    76  73  91 CALM      29.93S
NEWPORT        MOCLDY    76  76 100 S5        29.93F
WALNUT RIDGE   PTCLDY    77  73  88 CALM      29.92S
BLYTHEVILLE    CLOUDY    79  76  90 CALM      29.93F
$$

ARZ022-023-033-042-044-240900-
CENTRAL ARKANSAS

CITY           SKY/WX    TMP DP  RH WIND       PRES   REMARKS
LITTLE ROCK    CLOUDY    78  72  81 S6        29.93F
N LITTLE ROCK    N/A     75  71  89 CALM      29.90F
JACKSONVILLE   CLOUDY    76  75  98 S3        29.92F
HOT SPRINGS    PTCLDY    75  73  93 NE3       29.95F
RUSSELLVILLE   PTCLDY    77  72  84 CALM      29.93S
$$

ARZ036-240900-
EAST ARKANSAS

CITY           SKY/WX    TMP DP  RH WIND       PRES   REMARKS
WEST MEMPHIS   MOCLDY    76  74  93 S5        29.92F
$$

ARZ050-053-066-070-073-240900-
SOUTHWEST ARKANSAS

CITY           SKY/WX    TMP DP  RH WIND       PRES   REMARKS
CAMDEN         CLEAR     72  68  88 CALM      29.93S FOG
TEXARKANA      CLEAR     74  72  93 SE5       29.94R
EL DORADO      MOCLDY    73  72  96 CALM      29.95S
DE QUEEN       PTCLDY    72  72 100 CALM      29.92S FOG
$$

ARZ056-057-069-240900-
SOUTHEAST ARKANSAS

CITY           SKY/WX    TMP DP  RH WIND       PRES   REMARKS
PINE BLUFF     CLOUDY    74  72  93 W3        29.93F
STUTTGART      CLOUDY    75  70  83 CALM      29.93S
MONTICELLO     CLEAR     75  73  93 CALM      29.93F

$$





USA.gov is the U.S. government's official web portal to all federal, state and local government web resources and services.